User: anonymous   Login
Location: Bethera
(33.2010°N, 79.7880°W)
Time: 11:35:00
(UTC-05:00)
Language:

Cosmos 1833 Rocket - Orbit

View from above orbital plane
View from above orbital plane
View from above satellite
View from above satellite

Ground track
Ground track

The orbit data is extracted from the following two-line orbital elements,

1 17590U 87027B   17351.91682766  .00000123  00000-0  85604-4 0  9991
2 17590  71.0025 123.0845 0004643 356.5163   3.5928 14.16750947590148
Epoch (UTC): 17 December 2017 22:00:13
Eccentricity: 0.0004643
inclination: 71.0025°
perigee height: 833 km
apogee height: 840 km
right ascension of ascending node: 123.0845°
argument of perigee: 356.5163°
revolutions per day: 14.16750947
mean anomaly at epoch: 3.5928°
orbit number at epoch: 59014

The dashed part of the orbit path shows where the satellite is in the earth's shadow,  

DLR